BEIDOU-3 IGSO-3

Last updated on Oct. 21, 2020, 5:57 a.m. UTC

1 44709U 19073A   20294.46299442 -.00000161  00000-0  10000-3 0  9994
2 44709  58.2099 302.6212 0021985 197.3807 162.0074  1.00293816  3738
UTC
Height (km)
Latitude
Longitude
Inclination
Orbital Period
UTC large
Height (km)
Speed (km/s)
/
Latitude / Longitude
Inclination (degrees)
Orbital Period (minutes)
Azimuth
Elevation
Range (km)
Doppler Factor
iOS Compass Heading
iOS Angle

Next 30 passes for location: Hong Kong

Rise time Rise Azimuth (degrees) Set time Set Azimuth (degrees) Duration Max altitude (degrees)

No matching passes for this satellites